Terug naar catalogus

FENGYUN 1C DEB

LostPO
NORAD 38145·DEBRIS·🇨🇳 China

Gelanceerd May 10, 1999 vanaf Taiyuan Satellite Launch Center

Loading…

Volgende Passages (komende 24 uur)

TLE

VerouderdSource: Space-Track

Epoch: Sep 4, 2022, 09:45 UTC

1 38145U 99025EQS 22247.40663019  .00001008  00000-0  79285-3 0  9995
2 38145  97.6255  98.1846 0423511  42.6244 320.6960 13.58298929733950

Volg FENGYUN 1C DEB in realtime met AllMySat

Download on the App Store